235P/LINEAR (2010)

Japanese version
Home page
Updated on October 3, 2010

---------------------------------------------------------------------

* Profile

Designation 235P/2010 F2
Recovery Date March 20, 2010
Magnitude 18.3 mag
Recoverer R. H. McNaught (Siding Spring Survey)

* Pictures

* Orbital Elements

Epoch 2010 Mar. 25.0 TT = JDT 2455280.5
T 2010 Mar. 21.63480 TT                                 MPC
q   2.7483175            (2000.0)            P               Q
n   0.12299585     Peri.  333.71424     -0.99730219     -0.03585411
a   4.0044458      Node   204.48696     +0.05158005     -0.96315164
e   0.3136834      Incl.    8.88993     -0.05222881     -0.26655842
P   8.01

* Magnitudes Graph

        m1 = 12.0 + 5 log d + 10.0 log r

---------------------------------------------------------------------

The orbital elements are published on M.P.E.C. 2010-F50.
The magnitudes graphs are made with Comet for Windows.

---------------------------------------------------------------------

Copyright(C) Seiichi Yoshida (comet@aerith.net). All rights reserved.